User: anonymous   Login
Location: Goettingen
(51.5300°N, 9.9433°E)
Time: 06:19:46
(UTC+02:00)
Language:

ISS - Orbit

View from above orbital plane
View from above orbital plane
View from above satellite
View from above satellite

Ground track
Ground track

The orbit data is extracted from the following two-line orbital elements,

1 25544U 98067A   21213.47511809 -.00005027  00000-0 -83626-4 0  9999
2 25544  51.6441 118.7731 0001112 226.4321 303.3835 15.48855972295618
Epoch (UTC): 01 August 2021 11:24:10
Eccentricity: 0.0001112
inclination: 51.6441°
perigee height: 419 km
apogee height: 421 km
right ascension of ascending node: 118.7731°
argument of perigee: 226.4321°
revolutions per day: 15.48855972
mean anomaly at epoch: 303.3835°
orbit number at epoch: 29561

The dashed part of the orbit path shows where the satellite is in the earth's shadow,  

DLR